TimeEST,TemperatureF,Dew PointF,Humidity,Sea Level PressureIn,VisibilityMPH,Wind Direction,Wind SpeedMPH,Gust SpeedMPH,PrecipitationIn,Events,Conditions,WindDirDegrees,DateUTC
12:15 AM,55.4,53.6,94,30.19,9.0,Calm,Calm,-,N/A,,Clear,0,2013-11-17 05:15:00
12:35 AM,55.4,53.6,94,30.18,9.0,Calm,Calm,-,N/A,,Clear,0,2013-11-17 05:35:00
12:55 AM,53.6,51.8,94,30.18,2.0,Calm,Calm,-,N/A,,Clear,0,2013-11-17 05:55:00
1:15 AM,53.6,53.6,100,30.18,10.0,Calm,Calm,-,N/A,,Clear,0,2013-11-17 06:15:00
1:35 AM,53.6,51.8,94,30.18,10.0,Calm,Calm,-,N/A,,Clear,0,2013-11-17 06:35:00
1:55 AM,53.6,51.8,94,30.17,6.0,Calm,Calm,-,N/A,,Clear,0,2013-11-17 06:55:00
2:15 AM,51.8,51.8,100,30.17,1.0,Calm,Calm,-,N/A,,Clear,0,2013-11-17 07:15:00
2:35 AM,51.8,51.8,100,30.17,0.8,Calm,Calm,-,N/A,,Mist,0,2013-11-17 07:35:00
2:55 AM,51.8,51.8,100,30.16,6.0,Calm,Calm,-,N/A,,Clear,0,2013-11-17 07:55:00
3:15 AM,53.6,51.8,94,30.15,0.8,Calm,Calm,-,N/A,,Mist,0,2013-11-17 08:15:00
3:35 AM,53.6,53.6,100,30.14,7.0,Calm,Calm,-,N/A,,Mostly Cloudy,0,2013-11-17 08:35:00
3:55 AM,-9999,-9999,N/A,30.14,10.0,Calm,Calm,-,N/A,,Mostly Cloudy,0,2013-11-17 08:55:00
4:15 AM,55.4,55.4,100,30.14,8.0,Calm,Calm,-,N/A,,Unknown,0,2013-11-17 09:15:00
4:35 AM,55.4,55.4,100,30.14,3.0,Calm,Calm,-,N/A,,Scattered Clouds,0,2013-11-17 09:35:00
4:55 AM,55.4,55.4,100,30.14,7.0,Calm,Calm,-,N/A,,Overcast,0,2013-11-17 09:55:00
5:15 AM,55.4,55.4,100,30.14,8.0,Calm,Calm,-,N/A,,Overcast,0,2013-11-17 10:15:00
5:35 AM,57.2,57.2,100,30.13,5.0,Calm,Calm,-,N/A,,Overcast,0,2013-11-17 10:35:00
5:55 AM,57.2,57.2,100,30.12,3.0,Calm,Calm,-,N/A,,Overcast,0,2013-11-17 10:55:00
6:15 AM,-9999,-9999,N/A,-9999,3.0,North,-9999.0,-,N/A,,Overcast,0,2013-11-17 11:15:00
6:35 AM,-9999,-9999,N/A,-9999,3.0,North,-9999.0,-,N/A,,Overcast,0,2013-11-17 11:35:00
6:55 AM,-9999,-9999,N/A,-9999,0.5,North,-9999.0,-,N/A,,Unknown,0,2013-11-17 11:55:00
7:15 AM,55.4,55.4,100,30.13,0.2,Calm,Calm,-,N/A,Fog,Fog,0,2013-11-17 12:15:00
7:35 AM,-9999,-9999,N/A,-9999,-9999.0,North,-9999.0,-,N/A,,Unknown,0,2013-11-17 12:35:00
7:55 AM,55.4,55.4,100,30.12,0.8,Calm,Calm,-,N/A,,Mist,0,2013-11-17 12:55:00
8:15 AM,57.2,57.2,100,30.13,3.0,Calm,Calm,-,N/A,,Overcast,0,2013-11-17 13:15:00
8:35 AM,57.2,57.2,100,30.13,5.0,Calm,Calm,-,N/A,,Overcast,0,2013-11-17 13:35:00
8:55 AM,57.2,57.2,100,30.15,7.0,Calm,Calm,-,N/A,,Overcast,0,2013-11-17 13:55:00
9:15 AM,59.0,59.0,100,30.14,10.0,Calm,Calm,-,N/A,,Overcast,0,2013-11-17 14:15:00
9:35 AM,60.8,60.8,100,30.14,10.0,Calm,Calm,-,N/A,,Overcast,0,2013-11-17 14:35:00
9:55 AM,60.8,60.8,100,30.14,10.0,Calm,Calm,-,N/A,,Overcast,0,2013-11-17 14:55:00
10:15 AM,62.6,60.8,94,30.15,10.0,Calm,Calm,-,N/A,,Overcast,0,2013-11-17 15:15:00
10:35 AM,64.4,60.8,88,30.14,10.0,Calm,Calm,-,N/A,,Overcast,0,2013-11-17 15:35:00
10:55 AM,66.2,60.8,83,30.14,10.0,Calm,Calm,-,N/A,,Overcast,0,2013-11-17 15:55:00
11:15 AM,66.2,60.8,83,30.14,10.0,Calm,Calm,-,N/A,,Overcast,0,2013-11-17 16:15:00
11:35 AM,69.8,60.8,73,30.12,10.0,Calm,Calm,-,N/A,,Overcast,0,2013-11-17 16:35:00
11:55 AM,69.8,62.6,78,30.11,10.0,ESE,3.5,-,N/A,,Overcast,120,2013-11-17 16:55:00
12:15 PM,71.6,62.6,73,30.10,10.0,Calm,Calm,-,N/A,,Overcast,0,2013-11-17 17:15:00
12:35 PM,71.6,62.6,73,30.09,10.0,Calm,Calm,-,N/A,,Mostly Cloudy,0,2013-11-17 17:35:00
12:55 PM,73.4,62.6,69,30.07,10.0,South,3.5,-,N/A,,Mostly Cloudy,170,2013-11-17 17:55:00
1:15 PM,73.4,64.4,73,30.07,10.0,ESE,8.1,-,N/A,,Mostly Cloudy,110,2013-11-17 18:15:00
1:35 PM,75.2,64.4,69,30.05,10.0,South,6.9,-,N/A,,Overcast,170,2013-11-17 18:35:00
1:55 PM,73.4,64.4,73,30.04,10.0,South,6.9,-,N/A,,Overcast,180,2013-11-17 18:55:00
2:15 PM,73.4,64.4,73,30.04,10.0,South,5.8,-,N/A,,Overcast,180,2013-11-17 19:15:00
2:35 PM,73.4,64.4,73,30.03,10.0,Calm,Calm,-,N/A,,Mostly Cloudy,0,2013-11-17 19:35:00
2:55 PM,73.4,64.4,73,30.03,10.0,Calm,Calm,-,N/A,,Overcast,0,2013-11-17 19:55:00
3:15 PM,73.4,64.4,73,30.02,10.0,South,6.9,-,N/A,,Overcast,180,2013-11-17 20:15:00
3:35 PM,73.4,64.4,73,30.02,10.0,SW,4.6,-,N/A,,Overcast,220,2013-11-17 20:35:00
3:55 PM,73.4,64.4,73,30.02,10.0,Calm,Calm,-,N/A,,Overcast,0,2013-11-17 20:55:00
4:15 PM,71.6,66.2,83,30.03,3.0,SSW,6.9,-,N/A,,Haze,200,2013-11-17 21:15:00
4:35 PM,71.6,66.2,83,30.03,8.0,Calm,Calm,-,N/A,,Overcast,0,2013-11-17 21:35:00
4:55 PM,69.8,66.2,88,30.02,9.0,Calm,Calm,-,N/A,,Overcast,0,2013-11-17 21:55:00
5:15 PM,71.6,66.2,83,30.01,10.0,Calm,Calm,-,N/A,,Overcast,0,2013-11-17 22:15:00
5:35 PM,71.6,66.2,83,30.01,10.0,Calm,Calm,-,N/A,,Overcast,0,2013-11-17 22:35:00
5:55 PM,69.8,66.2,88,30.00,10.0,Calm,Calm,-,N/A,,Overcast,0,2013-11-17 22:55:00
6:15 PM,69.8,66.2,88,30.01,10.0,Calm,Calm,-,N/A,,Overcast,0,2013-11-17 23:15:00
6:35 PM,69.8,66.2,88,30.01,10.0,Calm,Calm,-,N/A,,Overcast,0,2013-11-17 23:35:00
6:55 PM,69.8,66.2,88,30.01,10.0,Calm,Calm,-,N/A,,Overcast,0,2013-11-17 23:55:00
7:15 PM,69.8,66.2,88,30.00,10.0,Calm,Calm,-,N/A,,Mostly Cloudy,0,2013-11-18 00:15:00
7:35 PM,69.8,66.2,88,30.00,10.0,Calm,Calm,-,N/A,,Mostly Cloudy,0,2013-11-18 00:35:00
7:55 PM,69.8,66.2,88,30.00,10.0,Calm,Calm,-,N/A,,Mostly Cloudy,0,2013-11-18 00:55:00
8:15 PM,69.8,66.2,88,30.00,10.0,Calm,Calm,-,N/A,,Mostly Cloudy,0,2013-11-18 01:15:00
8:35 PM,69.8,66.2,88,30.00,10.0,Calm,Calm,-,N/A,,Mostly Cloudy,0,2013-11-18 01:35:00
8:55 PM,69.8,66.2,88,30.00,10.0,Calm,Calm,-,N/A,,Mostly Cloudy,0,2013-11-18 01:55:00
9:15 PM,69.8,66.2,88,30.00,10.0,Calm,Calm,-,N/A,,Overcast,0,2013-11-18 02:15:00
9:35 PM,69.8,66.2,88,30.00,10.0,Calm,Calm,-,N/A,,Scattered Clouds,0,2013-11-18 02:35:00
9:55 PM,69.8,66.2,88,30.00,10.0,Calm,Calm,-,N/A,,Partly Cloudy,0,2013-11-18 02:55:00
10:15 PM,69.8,66.2,88,30.01,10.0,Calm,Calm,-,N/A,,Partly Cloudy,0,2013-11-18 03:15:00
10:35 PM,69.8,66.2,88,30.01,10.0,Calm,Calm,-,N/A,,Mostly Cloudy,0,2013-11-18 03:35:00
10:55 PM,69.8,66.2,88,30.00,10.0,Calm,Calm,-,N/A,,Mostly Cloudy,0,2013-11-18 03:55:00
11:15 PM,69.8,68.0,94,30.00,10.0,Calm,Calm,-,N/A,,Mostly Cloudy,0,2013-11-18 04:15:00
11:35 PM,69.8,68.0,94,30.00,10.0,Calm,Calm,-,N/A,,Overcast,0,2013-11-18 04:35:00
11:55 PM,69.8,68.0,94,29.99,10.0,Calm,Calm,-,N/A,,Overcast,0,2013-11-18 04:55:00